Rockford, IL

7:43 AM CST on January 18, 2017 (GMT -0600)
Greater Rockford

Weather History for KRFD - November, 2010

Change the Weather History Date:

Monday, November 22, 2010

  Actual Average Record
Temperature  
Mean Temperature 52 °F 36 °F  
Max Temperature 69 °F 44 °F 69 °F (2010)
Min Temperature 35 °F 27 °F -1 °F (1929)
Degree Days  
Heating Degree Days 13 29  
Month to date heating degree days 430 528  
Since 1 July heating degree days 807 1081  
Cooling Degree Days 0 0  
Month to date cooling degree days 0 0  
Year to date cooling degree days 991 820  
Growing Degree Days 2 (Base 50)    
Moisture  
Dew Point 47 °F    
Average Humidity 77    
Maximum Humidity 86    
Minimum Humidity 68    
Precipitation  
Precipitation 0.48 in 0.09 in 1.21 in (1963)
Month to date precipitation 0.84 1.92  
Year to date precipitation 34.87 33.60  
Snow  
Snow 0.00 in 0.10 in 1.50 in (1945)
Month to date snowfall T 0.7  
Since 1 July snowfall T 0.8  
Since 1 September snowfall T 0.8  
Snow Depth -    
Sea Level Pressure  
Sea Level Pressure 29.77 in    
Wind  
Wind Speed 13 mph (SW)    
Max Wind Speed 25 mph    
Max Gust Speed 36 mph    
Visibility 7 miles    
Events Rain , Thunderstorm    
T = Trace of Precipitation, MM = Missing Value Source: NWS Daily Summary

Daily Weather History Graph

Daily Weather History Graph

Search for Another Location

Airport or City:

Trip Planner

Search our weather history database for the weather conditions in past years. The results will help you decide how hot, cold, wet, or windy it might be!

Date:

Astronomy

Nov. 22, 2010 Rise Set
Actual Time 6:55 AM CST 4:29 PM CST
Civil Twilight 6:24 AM CST 5:00 PM CST
Nautical Twilight 5:50 AM CST 5:34 PM CST
Astronomical Twilight 5:16 AM CST 6:07 PM CST
Moon 5:09 PM CST (11/22) 7:58 AM CST (11/22)
Length of Visible Light 10h 35m
Length of Day
9h 34m
Full, 99% of the Moon is Illuminated
Nov 22
Full
Nov 28
Last Quarter
Dec 5
New
Dec 13
First Quarter
Dec 21
Full

Hourly Weather History & Observations

Time (CST) Temp. Windchill Dew Point Humidity Pressure Visibility Wind Dir Wind Speed Gust Speed Precip Events Conditions
12:14 AM 57.2 °F - 51.8 °F 82% 29.83 in 8.0 mi SSW 10.4 mph - N/A   Overcast
12:54 AM 54.0 °F - 48.0 °F 80% 29.84 in 5.0 mi NW 10.4 mph - N/A   Haze
1:15 AM 53.6 °F - 46.4 °F 77% 29.85 in 5.0 mi WNW 8.1 mph - N/A   Haze
1:54 AM 52.0 °F - 46.9 °F 83% 29.87 in 5.0 mi WNW 9.2 mph - N/A   Haze
2:54 AM 51.1 °F - 45.0 °F 80% 29.87 in 7.0 mi West 3.5 mph - 0.00 in   Overcast
3:16 AM 51.8 °F - 46.4 °F 82% 29.86 in 7.0 mi Calm Calm - N/A   Overcast
3:54 AM 51.1 °F - 46.0 °F 83% 29.86 in 7.0 mi South 4.6 mph - 0.00 in   Overcast
4:33 AM 51.8 °F - 46.4 °F 82% 29.85 in 7.0 mi Calm Calm - N/A   Overcast
4:54 AM 51.1 °F - 46.0 °F 83% 29.85 in 6.0 mi Calm Calm - N/A   Haze
5:54 AM 51.1 °F - 46.0 °F 83% 29.81 in 6.0 mi East 3.5 mph - N/A   Haze
6:57 AM 51.8 °F - 46.4 °F 82% 29.85 in 1.8 mi WSW 5.8 mph - 0.05 in Rain , Thunderstorm Heavy Thunderstorms and Rain
7:38 AM 48.2 °F - 46.4 °F 93% 29.81 in 3.0 mi ENE 5.8 mph - 0.22 in Rain Light Rain
7:54 AM 48.9 °F - 46.0 °F 90% 29.81 in 2.0 mi ESE 8.1 mph - 0.22 in   Mostly Cloudy
8:07 AM 50.0 °F - 46.4 °F 87% 29.80 in 2.5 mi ESE 6.9 mph - N/A   Mostly Cloudy
8:27 AM 51.8 °F - 48.2 °F 88% 29.79 in 2.5 mi SE 8.1 mph - N/A   Mostly Cloudy
8:54 AM 55.0 °F - 51.1 °F 86% 29.78 in 3.0 mi SSE 10.4 mph - N/A   Mostly Cloudy
9:26 AM 57.2 °F - 53.6 °F 88% 29.77 in 5.0 mi SSE 11.5 mph - N/A   Overcast
9:54 AM 59.0 °F - 54.0 °F 83% 29.76 in 6.0 mi South 11.5 mph - N/A   Haze
10:46 AM 62.6 °F - 57.2 °F 82% 29.72 in 8.0 mi South 16.1 mph - N/A   Overcast
10:54 AM 62.1 °F - 57.0 °F 84% 29.72 in 8.0 mi South 15.0 mph 21.9 mph N/A   Overcast
11:34 AM 64.4 °F - 57.2 °F 77% 29.70 in 8.0 mi South 17.3 mph - N/A   Overcast
11:54 AM 66.0 °F - 57.9 °F 75% 29.68 in 8.0 mi South 19.6 mph - N/A   Overcast
12:44 PM 66.2 °F - 57.2 °F 73% 29.66 in 10.0 mi SSW 18.4 mph 32.2 mph N/A   Overcast
12:54 PM 68.0 °F - 57.9 °F 70% 29.65 in 10.0 mi South 19.6 mph 26.5 mph N/A   Overcast
1:54 PM 68.0 °F - 57.9 °F 70% 29.62 in 10.0 mi South 19.6 mph 26.5 mph N/A   Overcast
2:28 PM 66.2 °F - 57.2 °F 73% 29.58 in 10.0 mi South 12.7 mph - 0.00 in Rain , Thunderstorm Light Thunderstorms and Rain
2:54 PM 66.0 °F - 57.9 °F 75% 29.58 in 10.0 mi South 18.4 mph 31.1 mph 0.00 in Rain , Thunderstorm Light Thunderstorms and Rain
3:12 PM 64.4 °F - 57.2 °F 77% 29.61 in 3.0 mi SW 25.3 mph 35.7 mph 0.16 in Rain , Thunderstorm Light Thunderstorms and Rain
3:26 PM 64.4 °F - 57.2 °F 77% 29.61 in 10.0 mi WSW 13.8 mph 24.2 mph 0.24 in   Mostly Cloudy
3:54 PM 63.0 °F - 55.0 °F 75% 29.63 in 10.0 mi West 13.8 mph - 0.24 in   Mostly Cloudy
4:54 PM 57.9 °F - 48.9 °F 72% 29.67 in 10.0 mi West 16.1 mph 25.3 mph N/A   Mostly Cloudy
5:54 PM 52.0 °F - 44.1 °F 74% 29.73 in 10.0 mi West 11.5 mph 24.2 mph N/A   Mostly Cloudy
6:22 PM 48.2 °F - 41.0 °F 76% 29.74 in 10.0 mi West 19.6 mph 25.3 mph N/A   Overcast
6:54 PM 46.0 °F 38.8 °F 39.0 °F 76% 29.76 in 10.0 mi West 18.4 mph 23.0 mph N/A   Overcast
7:32 PM 44.6 °F 38.4 °F 37.4 °F 76% 29.76 in 10.0 mi West 12.7 mph 21.9 mph N/A   Overcast
7:54 PM 43.0 °F 36.8 °F 36.0 °F 76% 29.78 in 10.0 mi West 11.5 mph - N/A   Overcast
8:09 PM 42.8 °F 35.8 °F 35.6 °F 76% 29.78 in 10.0 mi WNW 13.8 mph 20.7 mph N/A   Overcast
8:54 PM 41.0 °F 32.8 °F 32.0 °F 70% 29.83 in 10.0 mi WNW 16.1 mph 28.8 mph N/A   Overcast
9:54 PM 39.0 °F 29.6 °F 30.0 °F 70% 29.86 in 10.0 mi NW 18.4 mph 28.8 mph N/A   Overcast
10:54 PM 37.0 °F 27.0 °F 28.0 °F 70% 29.91 in 10.0 mi WNW 18.4 mph 27.6 mph N/A   Overcast
11:54 PM 35.1 °F 24.8 °F 26.1 °F 70% 29.94 in 10.0 mi WNW 17.3 mph 25.3 mph N/A   Overcast